Location: Binningen
(47.7924°N, 8.7261°E)
Time: 04:39:05
(UTC+00:00)

USA 215 - Pass Details

Date: 17 May 2021
Orbit: 1101 x 1107 km, 123.0° (Epoch: 10 June)

Event Time Altitude Azimuth Distance (km) Brightness Sun altitude
Rises 22:20:06 0° 88° (E) 3,917 6.0 -21.3°
Reaches altitude 10° 22:22:41 10° 82° (E) 2,960 5.4 -21.4°
Maximum altitude 22:28:48 45° 13° (NNE) 1,472 4.3 -21.6°
Drops below altitude 10° 22:34:56 10° 304° (NW) 2,967 6.1 -21.9°
Sets 22:37:31 0° 298° (WNW) 3,926 6.7 -21.9°
